Weather History for Newport News, VA

Change the Weather History Date:

Tuesday, November 19, 2013

  Actual Average Record
Temperature  
Mean Temperature 50 °F -  
Max Temperature 55 °F 63 °F 80 °F (1953)
Min Temperature 43 °F 43 °F 25 °F (1959)
Degree Days  
Heating Degree Days 16    
Moisture  
Dew Point 28 °F    
Average Humidity 43    
Maximum Humidity 58    
Minimum Humidity 34    
Precipitation  
Precipitation 0.00 in - - ()
Sea Level Pressure  
Sea Level Pressure 30.14 in    
Wind  
Wind Speed 9 mph (North)    
Max Wind Speed 15 mph    
Max Gust Speed 22 mph    
Visibility 10 miles    
Events      
Averages and records for this station are not official NWS values.
T = Trace of Precipitation, MM = Missing Value Source: NWS Daily Summary

Daily Weather History Graph

Daily Weather History Graph

Search for Another Location

Airport:

Trip Planner

Search our weather history database for the weather conditions in past years. The results will help you decide how hot, cold, wet, or windy it might be!

Date:

Astronomy

Nov. 19, 2013 Rise Set
Actual Time 6:49 AM EST 4:53 PM EST
Civil Twilight 6:21 AM EST 5:21 PM EST
Nautical Twilight 5:49 AM EST 5:52 PM EST
Astronomical Twilight 5:18 AM EST 6:23 PM EST
Moon 6:43 PM EST (11/19) 8:26 AM EST (11/19)
Length of Visible Light 11h 00m
Length of Day
10h 04m
Waning Gibbous, 96% of the Moon is Illuminated
Nov 19
Waning Gibbous
Nov 25
Last Quarter
Dec 2
New
Dec 9
First Quarter
Dec 17
Full

Hourly Weather History & Observations

Time (EST) Temp. Windchill Dew Point Humidity Pressure Visibility Wind Dir Wind Speed Gust Speed Precip Events Conditions
12:54 AM 55.0 °F - 27.0 °F 34% 29.92 in 10.0 mi NNW 8.1 mph - N/A   Clear
1:54 AM 53.1 °F - 26.1 °F 35% 29.94 in 10.0 mi NNW 8.1 mph - N/A   Clear
2:54 AM 52.0 °F - 27.0 °F 38% 29.96 in 10.0 mi North 9.2 mph - N/A   Clear
3:54 AM 51.1 °F - 28.0 °F 41% 29.97 in 10.0 mi NNW 10.4 mph 17.3 mph N/A   Clear
4:54 AM 50.0 °F - 28.0 °F 43% 30.00 in 10.0 mi North 13.8 mph 18.4 mph N/A   Clear
5:54 AM 48.9 °F - 28.0 °F 44% 30.04 in 10.0 mi North 6.9 mph - N/A   Clear
6:54 AM 48.0 °F - 28.0 °F 46% 30.07 in 10.0 mi NNW 11.5 mph - N/A   Clear
7:54 AM 50.0 °F - 28.9 °F 44% 30.10 in 10.0 mi NNW 10.4 mph - N/A   Clear
8:54 AM 52.0 °F - 28.9 °F 41% 30.13 in 10.0 mi North 13.8 mph 19.6 mph N/A   Clear
9:54 AM 52.0 °F - 27.0 °F 38% 30.15 in 10.0 mi North 15.0 mph 21.9 mph N/A   Clear
10:54 AM 54.0 °F - 28.0 °F 37% 30.16 in 10.0 mi NNW 11.5 mph 19.6 mph N/A   Partly Cloudy
11:54 AM 54.0 °F - 28.0 °F 37% 30.14 in 10.0 mi North 10.4 mph 18.4 mph N/A   Clear
12:54 PM 55.0 °F - 28.9 °F 37% 30.14 in 10.0 mi NNE 8.1 mph 20.7 mph N/A   Clear
1:54 PM 55.0 °F - 28.9 °F 37% 30.14 in 10.0 mi NNE 6.9 mph - N/A   Clear
2:26 PM 55.4 °F - 28.4 °F 36% 30.15 in 10.0 mi NNE 10.4 mph - N/A   Partly Cloudy
2:54 PM 55.9 °F - 28.9 °F 36% 30.16 in 10.0 mi NNE 9.2 mph - N/A   Clear
3:54 PM 53.1 °F - 28.0 °F 38% 30.18 in 10.0 mi North 8.1 mph - N/A   Clear
4:54 PM 48.0 °F - 28.0 °F 46% 30.20 in 10.0 mi North 4.6 mph - N/A   Clear
5:54 PM 46.0 °F 43.9 °F 28.9 °F 51% 30.23 in 10.0 mi North 4.6 mph - N/A   Clear
6:54 PM 45.0 °F 43.5 °F 28.9 °F 53% 30.26 in 10.0 mi NNW 3.5 mph - N/A   Clear
7:54 PM 44.1 °F 41.5 °F 28.9 °F 55% 30.27 in 10.0 mi North 4.6 mph - N/A   Clear
8:54 PM 45.0 °F 41.8 °F 28.9 °F 53% 30.30 in 10.0 mi North 5.8 mph - N/A   Clear
9:54 PM 45.0 °F 41.2 °F 28.9 °F 53% 30.31 in 10.0 mi North 6.9 mph - N/A   Clear
10:54 PM 44.1 °F 39.5 °F 28.9 °F 55% 30.32 in 10.0 mi North 8.1 mph - N/A   Clear
11:54 PM 43.0 °F 38.8 °F 28.9 °F 58% 30.32 in 10.0 mi North 6.9 mph - N/A   Clear